Regional Weather Roundup
Issued by NWS

Home | Current Version | Previous Version | Text Only | Print | Product List | Glossary On
Versions: 1 2 3 4 5 6 7 8 9 10 11 12 13 14 15 16 17 18 19 20 21 22 23 24 25 26 27 28 29 30 31 32 33 34 35 36 37 38 39 40 41 42 43 44 45 46 47 48 49 50
000
ASUS43 KTOP 031259
RWRKS

WEATHER ROUNDUP FOR KANSAS
NATIONAL WEATHER SERVICE GOODLAND KS
700 AM CST TUE MAR 03 2015

NOTE:  "FAIR" INDICATES FEW OR NO CLOUDS BELOW 12,000 FEET WITH NO
SIGNIFICANT WEATHER AND/OR OBSTRUCTIONS TO VISIBILITY.

KSZ001>006-013>018-027>032-041>047-031400-
NORTHWEST KANSAS

CITY           SKY/WX    TMP DP  RH WIND       PRES   REMARKS
GOODLAND       CLOUDY    31  30  96 N18G24    29.68R FOG     WCI  19
HAYS           CLOUDY    36  27  69 W9        29.66R
HILL CITY      MOCLDY    31  27  85 NW7       29.69R
RUSSELL        CLOUDY    36  33  89 SW14      29.63R WCI  27
$$

KSZ061>065-074>080-084>089-031400-
SOUTHWEST KANSAS

CITY           SKY/WX    TMP DP  RH WIND       PRES   REMARKS
DODGE CITY     CLOUDY    38  33  82 SW20G32   29.68S WCI  28
ELKHART          N/A     38  29  70 SW12        N/A  WCI  30
GARDEN CITY    CLOUDY    36  33  89 W8        29.67R
GREAT BEND     CLOUDY    37  30  75 SW9       29.67R
LIBERAL        CLOUDY    37  34  87 SW17      29.75S WCI  28
$$

KSZ066>073-081>083-090>101-031400-
SOUTHEAST KANSAS

CITY           SKY/WX    TMP DP  RH WIND       PRES   REMARKS
CHANUTE        CLOUDY    37  37 100 S23G29    29.79F FOG     WCI  26
COFFEYVILLE    CLOUDY    38  38 100 S17G25    29.87S FOG     WCI  28
HUTCHINSON     CLOUDY    39  33  79 SW14      29.72R WCI  31
NEWTON         CLOUDY    36  30  80 SW20G28   29.73R WCI  25
PARSONS        CLOUDY    38  38 100 S14       29.85F FOG     WCI  30
WICHITA INTL   CLOUDY    37  34  89 S16G25    29.75F WCI  28
WICHITA JABRA  CLOUDY    38  35  89 SW26G37   29.73F WCI  26
WINFIELD       CLOUDY    40  38  93 SW24G31   29.82F WCI  29
$$

KSZ007>012-019>026-033>040-048>060-102>105-031400-
NORTHEAST KANSAS

CITY           SKY/WX    TMP DP  RH WIND       PRES   REMARKS
CONCORDIA      MOCLDY    35  32  88 SW9       29.63S
EMPORIA        CLOUDY    39  37  92 SW21G29   29.73R WCI  29
LAWRENCE       CLOUDY    38  36  92 SW13      29.73F WCI  30
MANHATTAN      CLOUDY    39  35  86 SW21G28   29.66F WCI  29
OLATHE IND     CLOUDY    38  37  97 SW22G31   29.76R FOG     WCI  27
OLATHE EXE     CLOUDY    37  37 100 SW13      29.74R FOG     WCI  29
SALINA         CLOUDY    39  33  79 SW25      29.66F WCI  28
TOPEKA BILLARD CLOUDY    39  36  89 SW14      29.71F WCI  31
TOPEKA FORBES  CLOUDY    39  36  89 S20G29    29.70F WCI  29
$$



USA.gov is the U.S. government's official web portal to all federal, state and local government web resources and services.